TimeCDT,TemperatureF,Dew PointF,Humidity,Sea Level PressureIn,VisibilityMPH,Wind Direction,Wind SpeedMPH,Gust SpeedMPH,PrecipitationIn,Events,Conditions,WindDirDegrees,DateUTC
12:56 AM,66.9,61.0,81,29.98,10.0,North,5.8,-,N/A,,Mostly Cloudy,360,2013-06-03 05:56:00
1:56 AM,66.9,61.0,81,29.98,10.0,North,5.8,-,N/A,,Overcast,360,2013-06-03 06:56:00
2:56 AM,65.8,61.0,84,29.99,10.0,North,5.8,-,N/A,,Overcast,360,2013-06-03 07:56:00
3:56 AM,61.9,59.9,93,29.98,10.0,North,4.6,-,N/A,,Clear,360,2013-06-03 08:56:00
4:56 AM,61.0,59.0,93,29.99,10.0,Calm,Calm,-,N/A,,Clear,0,2013-06-03 09:56:00
5:56 AM,59.9,59.0,97,30.01,10.0,Calm,Calm,-,N/A,,Clear,0,2013-06-03 10:56:00
6:56 AM,64.9,61.9,90,30.02,10.0,North,5.8,-,N/A,,Scattered Clouds,350,2013-06-03 11:56:00
7:56 AM,66.9,61.0,81,30.03,10.0,NNE,5.8,-,N/A,,Clear,20,2013-06-03 12:56:00
8:56 AM,68.0,61.9,81,30.05,10.0,North,4.6,-,N/A,,Scattered Clouds,10,2013-06-03 13:56:00
9:42 AM,71.6,62.6,73,30.04,10.0,North,8.1,-,N/A,,Mostly Cloudy,360,2013-06-03 14:42:00
9:56 AM,70.9,61.9,73,30.06,10.0,North,6.9,-,N/A,,Mostly Cloudy,10,2013-06-03 14:56:00
10:56 AM,73.9,61.9,66,30.05,10.0,North,11.5,-,N/A,,Scattered Clouds,360,2013-06-03 15:56:00
11:56 AM,75.9,61.0,60,30.04,10.0,NNW,6.9,-,N/A,,Scattered Clouds,340,2013-06-03 16:56:00
12:56 PM,77.0,59.0,54,30.01,10.0,North,8.1,-,N/A,,Scattered Clouds,360,2013-06-03 17:56:00
1:56 PM,79.9,57.9,47,30.01,10.0,NNE,6.9,-,N/A,,Mostly Cloudy,30,2013-06-03 18:56:00
2:56 PM,77.9,57.9,50,30.00,10.0,NNW,4.6,-,N/A,,Partly Cloudy,330,2013-06-03 19:56:00
3:56 PM,79.0,57.9,48,29.99,10.0,North,9.2,-,N/A,,Partly Cloudy,350,2013-06-03 20:56:00
4:56 PM,79.0,56.8,46,29.97,10.0,NNW,9.2,-,N/A,,Clear,340,2013-06-03 21:56:00
5:56 PM,77.9,55.9,47,29.97,10.0,North,8.1,-,N/A,,Clear,350,2013-06-03 22:56:00
6:56 PM,74.8,57.9,55,29.99,10.0,North,4.6,-,N/A,,Clear,350,2013-06-03 23:56:00
7:56 PM,72.9,57.9,59,30.00,10.0,NNE,6.9,-,N/A,,Mostly Cloudy,20,2013-06-04 00:56:00
8:56 PM,66.9,59.0,76,30.02,10.0,North,4.6,-,N/A,,Scattered Clouds,350,2013-06-04 01:56:00
9:56 PM,68.9,56.8,65,30.04,10.0,NNE,6.9,-,N/A,,Clear,30,2013-06-04 02:56:00
10:56 PM,66.9,56.8,70,30.06,10.0,Calm,Calm,-,N/A,,Clear,0,2013-06-04 03:56:00
11:56 PM,63.9,55.9,75,30.06,10.0,Calm,Calm,-,N/A,,Clear,0,2013-06-04 04:56:00